Wind_Speed
45 45 44 43 40 40 41 41 40 39 39 38 37 37 35 33 32 29 26 23 20 18 16 14 13 13 12 13 15 17 18 20 21 22 24 25 27 28
46 47 47 48 45 43 42 42 42 42 41 41 39 39 37 36 34 32 29 26 23 20 17 16 14 13 13 13 14 15 16 18 19 21 22 23 24 25
48 48 50 50 49 47 45 44 44 44 43 43 41 41 40 38 36 34 32 29 25 22 19 17 15 14 13 13 14 14 16 17 18 19 20 21 22 23
53 52 52 52 51 50 48 47 46 45 45 44 43 43 42 41 39 37 35 32 28 25 21 18 16 14 13 13 13 14 15 15 16 17 18 20 21 21
57 57 56 55 54 53 51 50 48 47 46 46 45 45 44 43 42 40 37 34 31 27 23 20 17 15 13 13 13 13 14 14 15 15 16 18 19 19
59 59 59 59 57 57 54 53 52 49 48 49 48 47 47 46 44 41 39 37 34 30 26 22 18 16 14 13 13 13 13 14 15 15 16 16 17 17
58 58 60 61 60 60 58 56 55 53 51 50 49 48 48 47 45 43 41 39 37 33 29 25 21 18 15 14 13 13 14 14 15 15 15 15 16 16
55 57 58 60 61 63 61 59 59 57 54 52 50 49 49 48 48 46 44 42 39 36 32 28 24 20 17 15 14 14 14 14 15 15 15 15 16 17
52 54 55 58 60 62 63 62 62 60 57 55 52 48 48 49 49 48 47 44 42 38 35 30 26 24 20 17 15 15 15 15 15 15 16 16 17 17
48 52 53 55 57 60 62 63 63 62 59 56 54 52 50 49 49 50 49 47 44 41 37 33 29 26 23 19 17 16 16 15 15 15 15 16 16 17
43 47 50 52 53 55 58 61 62 63 62 58 56 54 51 50 49 50 49 47 44 42 39 35 32 29 25 22 20 18 17 16 16 15 15 15 16 17
37 41 45 47 49 51 53 57 59 60 61 60 57 56 53 51 49 49 48 47 45 43 41 38 35 31 28 25 23 20 18 17 16 16 16 16 16 16
31 36 41 43 44 46 49 52 55 57 58 59 57 55 55 53 50 49 48 46 46 43 42 40 38 34 31 28 25 22 20 19 18 17 16 16 16 16
26 31 36 39 40 42 44 47 50 53 55 56 56 55 55 53 51 49 48 45 45 44 43 41 39 36 33 30 27 24 22 20 19 18 17 16 16 16
22 27 31 34 36 38 39 42 45 48 51 53 53 53 52 52 51 50 48 46 44 43 43 41 40 38 35 32 29 26 24 22 20 19 19 18 18 18
20 23 27 30 33 33 35 37 40 43 46 48 49 50 51 52 50 48 47 47 46 44 42 41 40 38 36 34 31 27 25 23 22 20 20 20 19 18
19 22 24 27 29 30 31 32 35 39 42 43 45 46 46 47 48 47 46 45 45 44 43 41 38 37 37 34 31 29 27 25 23 22 21 20 20 19
18 21 23 25 26 28 28 30 32 35 38 39 42 44 44 44 45 46 46 46 43 42 42 42 40 38 35 34 32 30 28 26 24 23 22 22 21 21
18 20 23 24 24 25 26 28 29 32 34 36 38 40 43 44 45 45 45 43 43 41 41 40 40 38 35 33 32 31 29 27 25 24 23 22 21 21
17 20 22 22 23 24 25 27 28 30 32 34 36 38 40 42 43 43 44 43 43 42 39 38 38 37 35 34 33 31 29 27 26 25 23 22 21 21
16 19 20 21 22 23 24 26 27 29 30 33 35 36 38 39 40 41 42 42 41 40 38 36 35 37 38 36 34 31 29 28 26 25 24 23 22 21
14 17 19 20 21 23 24 25 26 27 29 31 33 34 37 39 41 41 41 42 41 40 39 37 37 38 38 35 34 32 30 28 27 26 25 24 23 22
12 14 17 19 20 21 22 24 25 26 28 31 32 33 36 38 39 40 41 41 41 41 40 39 39 38 37 35 33 31 30 29 27 27 26 25 24 24
Wind_Direction
253 249 247 245 243 237 234 231 227 225 223 222 219 216 214 212 211 211 212 214 217 220 225 234 241 247 255 260 263 262 259 256 255 254 255 255 256 257
252 248 246 244 242 239 234 230 226 224 223 221 219 217 215 212 211 211 213 214 217 220 226 234 240 247 254 261 265 264 262 258 258 258 258 256 258 259
252 248 245 242 240 238 235 230 227 225 223 221 219 218 216 213 212 211 213 215 218 220 225 232 239 245 253 260 266 266 263 261 260 260 260 258 260 260
250 247 244 241 239 238 236 233 228 223 222 221 219 218 217 215 213 213 214 216 218 220 224 230 236 244 253 260 266 267 264 263 262 261 261 260 261 262
249 245 242 240 237 236 234 232 229 225 223 222 219 219 218 216 215 215 215 216 218 220 222 227 234 242 252 260 265 266 265 264 263 264 264 264 261 261
248 244 241 238 236 234 232 231 229 228 225 222 222 219 218 217 216 216 216 216 218 219 222 226 232 239 248 257 262 264 264 264 265 265 264 262 260 260
246 243 240 237 235 233 231 229 228 227 225 223 222 220 219 218 217 217 217 217 218 219 221 225 230 237 245 253 259 263 264 264 264 265 263 261 261 262
244 241 238 235 233 232 231 228 226 225 225 224 223 221 220 219 218 218 218 218 218 219 221 224 229 235 241 248 256 261 263 264 264 264 264 264 264 264
243 238 235 232 231 229 229 228 226 224 224 224 223 220 220 219 219 219 219 218 219 219 221 224 228 232 238 244 253 259 261 263 264 263 262 263 264 264
240 235 232 230 229 227 226 226 226 224 223 223 224 222 220 219 219 218 219 219 219 220 222 224 227 231 235 240 248 254 258 260 261 262 264 264 263 264
234 230 228 227 226 225 224 224 225 225 223 222 223 222 220 220 219 219 219 219 220 221 221 223 226 230 233 237 243 249 254 257 258 260 263 264 264 264
229 225 223 223 223 223 222 222 222 223 223 223 222 221 222 220 220 219 218 218 220 222 222 223 226 229 231 236 240 246 251 254 255 258 261 262 263 263
225 221 219 219 220 222 221 220 220 221 222 222 221 221 220 221 220 220 221 221 220 221 222 224 225 227 230 234 238 244 248 250 253 257 260 259 260 261
218 214 213 214 216 218 218 217 217 218 220 220 221 221 221 221 222 224 224 223 221 221 222 223 225 226 229 233 237 241 246 248 251 255 256 256 258 261
208 205 206 208 210 212 213 214 214 216 218 219 220 221 223 222 223 225 225 225 223 223 224 225 226 227 230 233 236 239 243 246 249 253 253 255 258 261
198 197 198 201 203 204 207 210 211 212 214 216 218 219 221 222 223 224 225 226 227 226 227 228 228 229 230 232 235 238 241 244 248 252 253 255 258 261
192 192 192 193 196 198 201 203 205 207 210 212 214 216 219 221 222 223 224 224 225 226 228 227 228 229 229 230 233 237 241 243 247 251 253 255 258 260
187 189 189 188 190 192 195 198 199 201 205 208 209 211 215 216 217 219 221 222 223 224 225 226 227 228 229 230 233 236 239 242 246 250 252 255 257 259
186 186 187 187 188 192 194 196 197 198 200 203 205 208 211 213 215 217 217 219 220 221 222 223 226 227 228 229 232 235 238 241 246 249 252 254 255 257
186 186 187 189 191 193 194 194 194 196 198 199 200 203 206 209 212 214 216 217 217 218 219 222 224 226 228 229 231 234 237 241 245 249 251 252 253 256
181 184 189 192 193 193 194 194 194 195 197 198 199 201 203 205 207 208 212 213 212 213 215 218 222 224 225 227 230 233 237 240 244 247 249 251 253 255
179 184 188 192 194 195 195 195 196 196 197 198 198 199 200 201 203 205 209 212 211 211 212 215 219 221 223 227 230 233 236 238 242 246 248 250 252 253
181 185 188 191 193 195 196 197 198 199 199 199 198 200 200 200 201 201 203 206 208 208 208 213 218 218 220 224 227 231 235 238 242 245 247 249 251 252
Height
5721 5726 5730 5734 5739 5744 5748 5754 5760 5766 5773 5778 5784 5789 5795 5801 5806 5812 5816 5820 5824 5827 5830 5832 5834 5836 5837 5839 5840 5841 5842 5843 5845 5846 5848 5850 5852 5853
5708 5712 5718 5723 5728 5733 5738 5743 5750 5757 5763 5769 5776 5782 5787 5793 5799 5805 5810 5815 5819 5822 5825 5827 5830 5831 5833 5834 5835 5836 5837 5837 5839 5840 5842 5844 5845 5846
5694 5698 5704 5709 5716 5722 5728 5733 5740 5747 5754 5760 5767 5773 5779 5785 5792 5797 5803 5808 5813 5816 5819 5822 5825 5826 5828 5829 5830 5831 5832 5832 5833 5834 5836 5838 5839 5840
5677 5683 5689 5694 5701 5708 5715 5722 5729 5736 5743 5750 5757 5764 5770 5777 5783 5790 5796 5801 5806 5810 5814 5817 5820 5821 5823 5824 5825 5826 5827 5827 5828 5829 5830 5832 5833 5834
5659 5665 5672 5679 5687 5695 5702 5710 5717 5724 5732 5739 5747 5754 5760 5768 5775 5782 5788 5794 5800 5804 5808 5811 5814 5816 5818 5819 5820 5821 5822 5822 5823 5824 5825 5826 5827 5828
5639 5646 5654 5662 5671 5679 5688 5696 5705 5712 5720 5728 5736 5743 5751 5758 5766 5773 5780 5786 5792 5797 5801 5805 5808 5811 5813 5814 5815 5817 5817 5818 5819 5820 5821 5821 5823 5824
5618 5627 5635 5644 5653 5663 5672 5682 5691 5700 5708 5716 5724 5732 5741 5749 5758 5765 5771 5778 5784 5790 5795 5799 5803 5805 5807 5809 5811 5812 5813 5813 5814 5815 5816 5817 5818 5819
5599 5607 5615 5625 5636 5646 5656 5667 5677 5686 5696 5705 5714 5722 5731 5740 5748 5756 5763 5770 5777 5782 5787 5792 5796 5800 5802 5804 5806 5807 5808 5809 5809 5810 5811 5812 5813 5814
5581 5588 5597 5607 5618 5629 5641 5651 5662 5673 5684 5694 5703 5712 5721 5730 5738 5746 5753 5761 5768 5774 5780 5786 5790 5793 5796 5798 5800 5802 5803 5804 5805 5805 5806 5807 5809 5810
5563 5571 5580 5591 5602 5614 5625 5637 5648 5659 5671 5682 5692 5701 5709 5718 5727 5735 5743 5751 5758 5766 5773 5779 5783 5786 5790 5792 5795 5797 5798 5799 5800 5801 5802 5803 5804 5805
5548 5556 5566 5576 5588 5600 5611 5623 5635 5645 5656 5668 5679 5689 5698 5707 5716 5725 5734 5742 5750 5757 5765 5771 5776 5780 5783 5786 5789 5791 5793 5794 5795 5796 5797 5798 5799 5800
5536 5544 5553 5564 5574 5585 5597 5609 5621 5632 5644 5656 5667 5678 5688 5697 5706 5716 5724 5733 5740 5749 5756 5763 5768 5773 5777 5780 5783 5785 5787 5789 5790 5791 5792 5794 5795 5795
5526 5534 5543 5553 5564 5574 5585 5596 5608 5620 5632 5644 5656 5666 5677 5687 5696 5706 5715 5724 5732 5740 5747 5754 5759 5765 5770 5774 5777 5779 5782 5784 5785 5786 5788 5789 5790 5791
5519 5526 5535 5545 5555 5565 5576 5586 5598 5609 5621 5633 5645 5656 5667 5677 5687 5697 5706 5714 5723 5731 5738 5745 5751 5758 5763 5767 5770 5773 5775 5778 5779 5781 5783 5784 5785 5786
5515 5522 5530 5539 5548 5558 5568 5578 5589 5600 5612 5623 5635 5646 5657 5667 5677 5687 5696 5705 5713 5722 5729 5737 5743 5750 5755 5760 5764 5767 5769 5772 5774 5775 5777 5779 5780 5781
5514 5520 5528 5536 5544 5553 5563 5572 5582 5593 5603 5615 5626 5636 5646 5657 5667 5677 5686 5696 5705 5713 5721 5728 5735 5742 5748 5753 5757 5760 5763 5766 5768 5769 5771 5773 5774 5775
5515 5520 5527 5534 5541 5550 5558 5567 5576 5586 5596 5606 5617 5628 5638 5648 5658 5668 5678 5687 5696 5705 5713 5720 5728 5734 5739 5745 5750 5754 5757 5759 5762 5764 5765 5767 5769 5770
5516 5521 5527 5533 5540 5547 5555 5563 5571 5580 5589 5598 5609 5619 5630 5640 5649 5659 5669 5678 5687 5696 5704 5712 5719 5726 5732 5738 5743 5747 5750 5753 5755 5757 5759 5761 5763 5764
5517 5521 5527 5533 5539 5545 5552 5559 5567 5575 5583 5592 5602 5612 5621 5632 5641 5651 5661 5670 5679 5688 5696 5704 5711 5718 5726 5732 5736 5740 5743 5746 5748 5751 5753 5755 5756 5757
5518 5522 5527 5532 5538 5544 5550 5557 5564 5572 5579 5588 5596 5605 5614 5624 5633 5643 5653 5662 5671 5680 5688 5696 5704 5711 5718 5724 5728 5732 5736 5739 5741 5744 5746 5748 5750 5751
5519 5523 5527 5532 5537 5543 5548 5555 5561 5568 5576 5583 5591 5599 5608 5617 5626 5635 5645 5654 5663 5672 5680 5689 5696 5703 5708 5715 5720 5725 5729 5732 5734 5736 5739 5741 5743 5745
5520 5524 5528 5532 5537 5542 5547 5553 5559 5566 5572 5579 5587 5594 5602 5611 5620 5628 5638 5647 5656 5665 5673 5680 5687 5694 5701 5707 5713 5717 5721 5724 5726 5729 5732 5735 5736 5738
5521 5524 5528 5532 5536 5541 5546 5551 5557 5563 5569 5576 5583 5590 5598 5606 5614 5622 5631 5640 5649 5657 5665 5673 5680 5687 5694 5700 5705 5710 5713 5716 5719 5722 5725 5727 5729 5730